Regional Weather Roundup
Issued by NWS

Home | Current Version | Previous Version | Text Only | Print | Product List | Glossary Off
Versions: 1 2 3 4 5 6 7 8 9 10 11 12 13 14 15 16 17 18 19 20 21 22 23 24 25 26 27 28 29 30 31 32 33 34 35 36 37 38 39 40 41 42 43 44 45 46 47 48 49 50

000
ASUS43 KLMK 031510
RWRKY
KENTUCKY REGIONAL WEATHER ROUNDUP
NATIONAL WEATHER SERVICE LOUISVILLE KY
1000 AM EST TUE MAR 03 2015

NOTE "FAIR" INDICATES FEW OR NO CLOUDS BELOW 12,000 FEET
WITH NO SIGNIFICANT WEATHER AND/OR OBSTRUCTIONS TO VISIBILITY.

KYZ001>023-026-027-061>063-070>075-031600-
WESTERN AND SOUTH CENTRAL KENTUCKY

CITY           SKY/WX    TMP DP  RH WIND       PRES   REMARKS
PADUCAH        FOG       43  42  97 S10       29.99F VSB 1/4
HENDERSON      CLOUDY    41  36  81 S14       29.97F
OWENSBORO      CLOUDY    39  37  92 S10       30.00F FOG     WCI  32
HOPKINSVILLE   CLOUDY    48  46  92 S12       30.03F
BOWLING GREEN  CLOUDY    50  45  83 S12       30.05F
GLASGOW        CLOUDY    47  43  84 S9        30.06F
$$

KYZ024-025-028>034-038-045-046-053-031600-
NORTH CENTRAL KENTUCKY

CITY           SKY/WX    TMP DP  RH WIND       PRES   REMARKS
LOUISVILLE/SDF LGT RAIN  37  32  82 SE7       30.02F WCI  32
LOUISVILLE/LOU LGT RAIN  37  31  78 S3        30.02F
FORT KNOX      DRIZZLE   39  36  87 S8        29.99F WCI  34
$$

KYZ035>037-039>044-047>052-055>060-089>105-031600-
NORTHEAST KENTUCKY

CITY           SKY/WX    TMP DP  RH WIND       PRES   REMARKS
LEXINGTON      CLOUDY    39  32  76 S13       30.03F WCI  31
COVINGTON      LGT RAIN  33  25  72 S7        30.02F WCI  27
FRANKFORT      CLOUDY    37  28  70 S5        30.02F WCI  33
$$

KYZ054-064>069-076>088-106>120-031600-
SOUTHEAST KENTUCKY

CITY           SKY/WX    TMP DP  RH WIND       PRES   REMARKS
JACKSON        CLOUDY    36  25  64 VRB3      30.09F
LONDON         CLOUDY    41  32  70 CALM      30.10F
SOMERSET       CLOUDY    46  41  81 S7        30.11F
MIDDLESBORO    CLOUDY    41  37  87 S7        30.17F
MONTICELLO     CLOUDY    54  50  86 S14       30.12F
$$



USA.gov is the U.S. government's official web portal to all federal, state and local government web resources and services.